2021-120C (49951 NORAD) Tracking and Keplerian Element Data
This shows tracking and keplerian element data for the satellite.
Feedback or suggestion? Click here.
Element | Value |
Catalog | 49951 |
Name | 2021-120C |
Epoch Orbit | 431 |
Epoch Day | 5.84689003 |
Epoch Year | 2022 |
RAAN | 208.3503 |
Inclination | 42.0129 |
Eccentricity | 0.0004744 |
Argument of Perigee | 113.9106 |
Mean Anonmoly | 246.2235 |
Mean Motion | 15.49479746 |
Decay Rate | 0.00053033 |
L1 | 1 49951U 21120C 22005.84689003 .00053033 00000+0 93803-3 0 9990 |
L2 | 2 49951 42.0129 208.3503 0004744 113.9106 246.2235 15.49479746 4317 |
Live tracking and technical data element details for 2021-120C (NORAD 49951). 2021-120C can be tracked NOW for your location showing map with azimuth and elevation plus other details from your city location.
Track the satellite on the map from your city or location and see movement details for azimuth, elevation, latitude, longitude, range, height, and movement on the map or in text.
IsCatalogInMostPopularTable: catalog: 49951, numindb: 29
Update: records affected: 1
GetName: 49951 2021-120C
Hit Count: updated at: Mon, 23 May 2022 20:51:08 GMT